Printer-friendly version

IAU Minor Planet Center

Minor Planet Center

MPEC 2005-H19 : 2005 HL3

The following Minor Planet Electronic Circular may be linked-to from your own Web pages, but must not otherwise be redistributed electronically.


Read MPEC 2005-H18 Read MPEC 2005-H20


M.P.E.C. 2005-H19                                Issued 2005 Apr. 21, 13:10 UT

     The Minor Planet Electronic Circulars contain information on unusual
         minor planets and routine data on comets.  They are published
   on behalf of Commission 20 of the International Astronomical Union by the
          Minor Planet Center, Smithsonian Astrophysical Observatory,
                          Cambridge, MA 02138, U.S.A.

                  Supported in part by the Brinson Foundation
             Prepared using the Tamkin Foundation Computer Network

                              MPC@CFA.HARVARD.EDU
          URL http://cfa-www.harvard.edu/iau/mpc.html  ISSN 1523-6714

                                   2005 HL3

Observations:
     K05H03L* C2005 04 19.46924 10 01 07.24 -40 05 20.1          16.6 R EH019E12
     K05H03L  C2005 04 19.47826 10 01 08.00 -40 05 08.0          16.6 R EH019E12
     K05H03L  C2005 04 19.48720 10 01 08.89 -40 04 56.0          16.8 R EH019E12
     K05H03L  C2005 04 19.49701 10 01 09.79 -40 04 43.3          16.7 R EH019E12
     K05H03L 1C2005 04 19.52261 10 01 12.113-40 04 09.54         16.8 R EH019413
     K05H03L 1C2005 04 19.52447 10 01 12.278-40 04 07.13         16.8 R EH019413
     K05H03L 1C2005 04 19.52632 10 01 12.447-40 04 04.63         16.8 R EH019413
     K05H03L  C2005 04 19.56341 10 01 16.14 -40 03 16.7                 EH019322
     K05H03L  C2005 04 19.57666 10 01 17.35 -40 02 59.2                 EH019322
     K05H03L  C2005 04 19.58808 10 01 18.40 -40 02 44.3                 EH019322
     K05H03L 1C2005 04 19.60557 10 01 19.778-40 02 19.44         17.0 R EH019413
     K05H03L 1C2005 04 19.60742 10 01 19.956-40 02 17.03         16.9 R EH019413
     K05H03L 1C2005 04 19.60927 10 01 20.127-40 02 14.45         16.9 R EH019413
     K05H03L 1C2005 04 19.67941 10 01 26.730-40 00 40.95         16.8 R EH019413
     K05H03L 1C2005 04 19.68127 10 01 26.912-40 00 38.58         16.9 R EH019413
     K05H03L 1C2005 04 19.68312 10 01 27.095-40 00 36.03         17.0 R EH019413
     K05H03L  C2005 04 19.93452 10 01 51.74 -39 55 12.2          16.9 R EH019I77
     K05H03L  C2005 04 19.93978 10 01 52.22 -39 55 05.6          16.8 R EH019I77
     K05H03L  C2005 04 19.94715 10 01 52.90 -39 54 55.8          16.8 R EH019I77
     K05H03L  C2005 04 20.17015 10 02 14.19 -39 50 07.5          16.8 R EH019854
     K05H03L  C2005 04 20.17402 10 02 14.59 -39 50 02.3          16.7 R EH019854
     K05H03L  C2005 04 20.17788 10 02 14.89 -39 49 58.1          16.7 R EH019854
     K05H03L  C2005 04 20.18123 10 02 15.21 -39 49 53.7          16.8 R EH019854
     K05H03L  C2005 04 20.18411 10 02 15.45 -39 49 49.3          17.1 R EH019854
     K05H03L  C2005 04 20.18703 10 02 15.74 -39 49 44.8          17.1 R EH019854
     K05H03L 1C2005 04 20.36716 10 02 33.399-39 45 41.90         16.9 R EH019413
     K05H03L 1C2005 04 20.36878 10 02 33.553-39 45 39.83         16.9 R EH019413
     K05H03L 1C2005 04 20.37040 10 02 33.701-39 45 37.73         16.9 R EH019413
     K05H03L 1C2005 04 20.47841 10 02 43.772-39 43 15.34         16.9 R EH019413
     K05H03L 1C2005 04 20.47842 10 02 43.772-39 43 15.34         16.9 R EH019413
     K05H03L 1C2005 04 20.48026 10 02 43.938-39 43 12.91         16.9 R EH019413
     K05H03L 1C2005 04 20.48027 10 02 43.938-39 43 12.91         16.9 R EH019413
     K05H03L 1C2005 04 20.48211 10 02 44.122-39 43 10.42         17.0 R EH019413
     K05H03L 1C2005 04 20.48212 10 02 44.122-39 43 10.42         17.0 R EH019413
     K05H03L  C2005 04 21.01411 10 03 36.10 -39 31 26.2          16.7 R EH019844
     K05H03L  C2005 04 21.01413 10 03 35.91 -39 31 28.3          16.9 R EH019I77
     K05H03L  C2005 04 21.01838 10 03 36.30 -39 31 22.7          16.8 R EH019I77
     K05H03L  C2005 04 21.02369 10 03 36.82 -39 31 15.5          16.8 R EH019I77
     K05H03L  C2005 04 21.02412 10 03 37.04 -39 31 12.6          16.6 R EH019844
     K05H03L  C2005 04 21.03512 10 03 38.11 -39 30 57.8          16.6 R EH019844
     K05H03L  C2005 04 21.05078 10 03 39.57 -39 30 37.3          16.6 R EH019844
     K05H03L  C2005 04 21.07830 10 03 42.20 -39 30 00.2          16.7 R EH019844
     K05H03L  C2005 04 21.19439 10 03 53.58 -39 27 33.4          17.3 R EH019448
     K05H03L  C2005 04 21.19801 10 03 53.97 -39 27 28.8          17.3 R EH019448
     K05H03L  C2005 04 21.20162 10 03 54.30 -39 27 24.0          16.7 R EH019448
     K05H03L  C2005 04 21.20524 10 03 54.60 -39 27 19.2          17.0 R EH019448
     K05H03L  C2005 04 21.20887 10 03 54.99 -39 27 13.6          17.3 R EH019448

Observer details:
322 Perth Observatory, Bickley-MCT.  Observer J. Biggs.  0.35-m f/10
    Schmidt-Cassegrain + CCD.
413 Siding Spring.  Observer R. H. McNaught.  1.0-m f/8 reflector + CCD.
448 Desert Moon Observatory.  Observer B. L. Stevens.  0.3-m
    Schmidt-Cassegrain + CCD.
844 Los Molinos.  Observer S. Roland.  0.46-m f/2.8 reflector + CCD.
854 Sabino Canyon Observatory, Tucson.  Observer J. E. McGaha.  0.36-m f/10.0
    Schmidt-Cassegrain + CCD.
E12 Siding Spring Survey.  Observer R. H. McNaught.  Measurers E. C. Beshore,
    C. M. Casey, E. J. Christensen, G. J. Garradd, A. D. Grauer, R. E. Hill,
    S. M. Larson, R. H. McNaught.  0.5-m Uppsala Schmidt + CCD.
I77 CEAMIG-REA Observatory, Belo Horizonte.  Observers C. Jacques, E. Pimentel.
    Measurer C. Jacques.  0.30-m f/3.0 Schmidt-Cassegrain + CCD.

Orbital elements:
2005 HL3
Epoch 2005 Apr. 20.0 TT = JDT 2453480.5                 MPC
M 359.64491              (2000.0)            P               Q
n   0.03199865     Peri.  314.52757     -0.86004399     +0.12463271
a   9.8261089      Node   239.05229     -0.11344538     -0.99214434
e   0.8086704      Incl.   35.23221     -0.49744797     +0.01078420
P  30.8            H   14.4           G   0.15
From 47 observations 2005 Apr. 19-21.

Ephemeris:
2005 HL3                 a,e,i = 9.83, 0.81, 35                  q = 1.8800
Date    TT    R. A. (2000) Decl.     Delta      r     Elong.  Phase     V
2005 04 20    10 01.96   -39 53.7    1.146    1.884   122.2    26.8    17.3
2005 04 30    10 19.60   -36 05.9    1.153    1.880   120.8    27.4    17.3
2005 05 10    10 39.99   -32 08.5    1.179    1.883   118.5    28.1    17.4
2005 05 20    11 02.21   -28 15.6    1.224    1.892   115.3    28.9    17.5
2005 05 30    11 25.42   -24 39.4    1.288    1.908   111.4    29.6    17.6
2005 06 09    11 48.95   -21 28.2    1.372    1.930   107.0    30.2    17.8
2005 06 19    12 12.38   -18 47.0    1.473    1.959   102.2    30.5    18.0
2005 06 29    12 35.38   -16 36.5    1.590    1.993    97.3    30.4    18.2
2005 07 09    12 57.82   -14 54.6    1.720    2.032    92.2    30.0    18.4
2005 07 19    13 19.66   -13 38.0    1.861    2.076    87.2    29.3    18.6
2005 07 29    13 40.87   -12 42.4    2.011    2.124    82.1    28.3    18.8
2005 08 08    14 01.51   -12 03.5    2.168    2.177    77.0    27.0    19.0
2005 08 18    14 21.64   -11 37.6    2.329    2.233    71.9    25.5    19.1
2005 08 28    14 41.31   -11 20.8    2.493    2.292    66.8    23.9    19.3
2005 09 07    15 00.59   -11 10.3    2.658    2.354    61.7    22.1    19.4

Timothy B. Spahr             (C) Copyright 2005 MPC           M.P.E.C. 2005-H19

Read MPEC 2005-H18 Read MPEC 2005-H20


Our Web policy. Index to the CBAT/MPC/ICQ pages.


Valid HTML 4.01!